Regional Weather Roundup
Issued by NWS

Home | Current Version | Previous Version | Graphics & Text | Print | Product List | Glossary On
Versions: 1 2 3 4 5 6 7 8 9 10 11 12 13 14 15 16 17 18 19 20 21 22 23 24 25 26 27 28 29 30 31 32 33 34 35 36 37 38 39 40 41 42 43 44 45 46 47 48 49 50
000
ASUS43 KLOT 272210
RWRIL

ILLINOIS REGIONAL WEATHER ROUNDUP
NATIONAL WEATHER SERVICE CHICAGO/ROMEOVILLE IL
400 PM CST TUE JAN 27 2015

NOTE: "FAIR" INDICATES FEW OR NO CLOUDS BELOW 12,000 FEET WITH NO
SIGNIFICANT WEATHER AND/OR OBSTRUCTIONS TO VISIBILITY.

* THESE STATIONS ARE NOT UNDER NWS QUALITY CONTROL. THEY ALSO MAY NOT
  REPORT WEATHER SUCH AS PRECIPITATION OR FOG.

ILZ001-002-007-009-015-016-024-272300-
NORTHWEST ILLINOIS

CITY           SKY/WX    TMP DP  RH WIND       PRES   REMARKS
MOLINE         CLOUDY    29  22  75 NE7       30.23R WCI  22
STERLING*      CLOUDY    30  25  80 CALM      30.23R
SAVANNA*       CLOUDY    29  23  77 W3        30.23S
$$

ILZ003-004-008-010-011-017-018-272300-
NORTH CENTRAL ILLINOIS

CITY           SKY/WX    TMP DP  RH WIND       PRES   REMARKS
ROCKFORD       CLOUDY    31  22  69 CALM      30.23R
FREEPORT*      CLOUDY    29  24  81 CALM      30.23S
ROCHELLE*      CLOUDY    29  23  77 CALM      30.22R
DE KALB*       PTCLDY    28  22  80 CALM      30.21R
PERU*          CLOUDY    31  26  81 N3        30.22S
$$

ILZ005-006-012>014-019>023-272300-
NORTHEAST ILLINOIS

CITY           SKY/WX    TMP DP  RH WIND       PRES   REMARKS
CHICAGO-OHARE  PTCLDY    30  16  56 NE9       30.20R WCI  22
CHICAGO-MIDWAY PTCLDY    31  17  56 NE13      30.21R WCI  21
AURORA         MOCLDY    32  22  66 NW7       30.21R WCI  26
LANSING*       CLEAR     29  18  62 N7        30.21S WCI  22
JOLIET*        CLEAR     32  20  62 N5        30.20S WCI  27
WAUKEGAN       CLEAR     27  16  63 NE7       30.21R WCI  19
DUPAGE AIRPORT PTCLDY    32  18  56 NE6       30.19R WCI  26
KANKAKEE*      PTCLDY    30  21  69 N5        30.20S WCI  25
WHEELING       CLEAR     29  15  56 NE8       30.23R WCI  21
MORRIS*        CLEAR     31  24  74 NW3       30.21R
ROMEOVILLE*    CLEAR     32  20  62 NE9       30.20S WCI  24
NORTHERLY ISL    N/A     28  17  63 N10         N/A  WCI  19
$$

LMZ740>746-272300-
SOUTHERN LAKE MICHIGAN

STATION/POSITION SKY/WX   TEMP    WIND        PRES    VSBY  WAVE
                          AIR SEA DIR/SP/G                  HT/PER
                          (F)     (DEG/KT/KT) (MB)    (MI)  (FT/S)
WAUKEGAN HARBOR            28      10/ 11/ 15   N/A
HARRISON CRIB              27      10/ 10/ 12   N/A
BURNHAM HARBOR             28     360/  6/ 12   N/A
CALUMET HARBOR             28     340/  8/ 12   N/A
MICHIGAN CITY              27     350/ 11/ 13   N/A
$$

ILZ025>027-034>036-040-047-049-050-058-095>099-272300-
WEST-CENTRAL ILLINOIS

CITY           SKY/WX    TMP DP  RH WIND       PRES   REMARKS
QUINCY         CLOUDY    36  29  75 NE10      30.19R WCI  28
GALESBURG*     CLOUDY    28  25  87 NE5       30.22R WCI  23
MACOMB*        CLOUDY    30  27  88 NE3       30.24R
JACKSONVILLE*  CLOUDY    34  28  80 NE6       30.22R WCI  29
PITTSFIELD*    CLOUDY    38  31  77 N8        30.21R WCI  32
$$

ILZ028>032-037-038-041>044-048-051>054-059>061-272300-
CENTRAL ILLINOIS

CITY           SKY/WX    TMP DP  RH WIND       PRES   REMARKS
PONTIAC        CLOUDY    31  29  90 CALM      30.22R FOG
BLOOMINGTON    CLOUDY    31  25  78 NE5       30.21R WCI  26
DECATUR        CLOUDY    33  27  78 N7        30.21R WCI  27
PEORIA         CLOUDY    32  25  75 VRB3      30.22R
LACON*         CLOUDY    30  24  79 N3        30.22R
LINCOLN*       CLOUDY    33  28  80 CALM      30.23R
SPRINGFIELD    CLOUDY    32  26  78 N7        30.22R WCI  26
TAYLORVILLE    CLOUDY    32  28  86 NW8       30.22R WCI  25
$$

ILZ033-039-045-046-055>057-062-063-272300-
EAST-CENTRAL ILLINOIS

CITY           SKY/WX    TMP DP  RH WIND       PRES   REMARKS
CHAMPAIGN      MOSUNNY   31  25  78 N9        30.19R WCI  23
DANVILLE*      PTCLDY    29  22  74 N8        30.17R WCI  21
RANTOUL*       MOCLDY    32  26  78 CALM      30.20R
MATTOON        CLOUDY    31  26  82 N10       30.18R WCI  22
PARIS*         CLOUDY    31  26  82 N5        30.20R WCI  26
$$

ILZ079-100>102-272300-
SOUTHWEST ILLINOIS

CITY           SKY/WX    TMP DP  RH WIND       PRES   REMARKS
BELLEVILLE     CLOUDY    41  31  68 N9        30.18R
CAHOKIA*       PTSUNNY   44  31  60 N12       30.19R
SPARTA*        CLOUDY    40  31  70 N6        30.19R
$$

ILZ064>066-069>071-074>076-080>082-084>086-088>090-092>094-272300-
SOUTH-CENTRAL ILLINOIS

CITY           SKY/WX    TMP DP  RH WIND       PRES   REMARKS
CARBONDALE     CLOUDY    41  30  65 N9        30.18R
CAIRO*         MOSUNNY   47  33  57 NW12G18   30.17R
EFFINGHAM*     CLOUDY    33  26  76 N6        30.21S WCI  27
MARION         CLOUDY    43  30  61 NW9       30.18R
MT. VERNON     CLOUDY    37  27  65 N5        30.19R WCI  34
CENTRALIA*     SUNNY     38  29  70 NW12      30.19R WCI  30
SALEM*         CLOUDY    37  31  76 N10       30.20R WCI  30
METROPOLIS*    CLOUDY    44  31  61 N10       30.16R
$$

ILZ067-068-072-073-078-083-087-091-272300-
SOUTHEAST ILLINOIS

CITY           SKY/WX    TMP DP  RH WIND       PRES   REMARKS
LAWRENCEVILLE  CLOUDY    33  29  85 N7        30.19R WCI  27
FLORA*         CLOUDY    35  30  82 N9        30.20R WCI  28
FAIRFIELD*     CLOUDY    37  31  79 N6        30.18R WCI  32
HARRISBURG*    CLOUDY    39  31  71 N9        30.19R WCI  33
ROBINSON*      CLOUDY    32  30  92 N6        30.19R WCI  26
CARMI*         CLOUDY    38  32  81 N8        30.18R WCI  32
$$

ABBREVIATIONS USED IN REMARKS
   TC - TEMPERATURE IN CELSIUS
  WCI - WIND CHILL INDEX
   HX - HEAT INDEX
  VSB - VISIBILITY
$$




USA.gov is the U.S. government's official web portal to all federal, state and local government web resources and services.